GFSMW_prec_precacc_126.txt.gz
Total_Precipitation_Accumulation
0.45 1.43 1.12 0.97 0.88 0.71 0.62 0.66 0.62 0.48 0.79 0.90 0.80 0.63 0.53 0.47 0.46 0.64 0.75 0.79 0.58 0.40 0.29 0.26 0.22 0.20 0.17 0.18 0.23 0.32 0.34 0.28 0.40 0.53 0.26 0.19 0.13 0.11 0.11 0.20 0.31 0.33 0.28
0.14 0.99 1.36 1.51 1.02 0.81 0.97 0.77 0.72 0.84 0.77 0.95 0.98 0.97 0.92 0.87 0.78 0.96 0.87 0.89 0.81 0.78 0.67 0.49 0.43 0.32 0.32 0.29 0.24 0.25 0.27 0.27 0.45 0.58 0.44 0.21 0.09 0.05 0.06 0.09 0.10 0.12 0.15
0.05 0.27 0.88 1.32 1.32 1.05 1.06 1.18 1.07 1.08 0.98 1.25 1.65 1.73 1.72 1.48 1.29 0.94 0.93 1.08 1.09 1.28 1.33 1.23 1.19 1.11 0.87 0.65 0.62 0.52 0.50 0.52 0.50 0.53 0.59 0.30 0.11 0.03 0.04 0.04 0.04 0.04 0.05
0.13 0.19 0.40 0.87 0.92 0.95 0.86 0.94 1.30 1.41 1.55 1.47 1.73 1.96 2.17 2.17 1.91 2.21 2.04 1.80 1.71 1.82 2.19 2.32 2.17 2.01 1.64 1.55 1.66 1.66 1.47 1.43 1.10 1.01 0.84 0.69 0.38 0.19 0.08 0.03 0.04 0.06 0.05
0.45 0.38 0.31 0.38 0.59 0.65 0.74 0.73 1.01 1.33 2.04 1.95 2.30 2.83 2.42 2.36 2.23 2.15 2.44 2.20 2.19 2.07 2.00 2.29 2.74 2.77 2.89 2.57 2.23 2.23 2.21 2.10 2.04 1.77 1.50 1.23 1.09 0.86 0.63 0.36 0.22 0.17 0.13
0.78 0.75 0.60 0.50 0.31 0.42 0.55 0.63 0.70 1.05 1.58 2.64 2.91 3.03 3.39 2.91 2.70 2.83 2.69 2.95 2.45 2.17 1.97 2.42 2.67 2.93 2.64 2.42 2.55 2.44 2.19 2.02 1.72 1.62 1.55 1.37 1.21 1.01 1.01 0.81 0.49 0.39 0.29
0.58 0.84 0.65 0.36 0.33 0.28 0.34 0.35 0.42 0.55 0.92 1.39 1.89 1.84 2.22 2.18 2.11 2.02 2.29 2.37 2.33 2.00 2.00 1.59 1.94 2.12 2.30 2.51 2.23 2.02 1.88 1.90 2.05 1.89 1.74 1.76 1.62 1.45 1.29 1.21 0.81 0.49 0.29
0.45 0.60 0.52 0.36 0.31 0.36 0.26 0.22 0.29 0.33 0.43 0.90 1.32 1.52 1.45 1.46 1.55 1.54 1.51 1.45 1.41 1.37 1.37 1.41 1.25 1.27 1.40 1.61 1.73 1.58 1.43 1.36 1.35 1.34 1.37 1.39 1.37 1.27 1.26 1.48 1.59 1.27 0.60
0.44 0.48 0.57 0.57 0.25 0.27 0.19 0.10 0.11 0.15 0.15 0.28 0.41 0.67 0.89 0.96 0.84 0.88 0.78 0.78 0.95 1.05 1.12 1.22 1.32 1.26 1.29 1.35 1.36 1.31 1.22 1.15 1.01 0.95 0.99 1.04 0.96 0.95 0.97 1.09 1.30 1.49 1.25
0.72 0.77 0.96 0.90 0.38 0.24 0.19 0.15 0.11 0.08 0.11 0.16 0.13 0.20 0.32 0.52 0.68 0.65 0.61 0.43 0.51 0.70 1.21 1.17 0.88 0.89 0.94 1.13 1.41 1.40 1.22 1.19 1.18 1.09 1.08 1.08 1.05 1.00 0.93 0.94 1.01 1.23 1.41
0.91 0.81 0.78 0.87 0.54 0.26 0.25 0.20 0.19 0.19 0.16 0.13 0.07 0.07 0.18 0.27 0.25 0.24 0.32 0.34 0.36 0.46 0.72 1.00 1.16 1.04 0.89 0.87 0.93 0.94 1.03 1.22 1.24 1.26 1.25 1.13 1.19 1.48 1.55 1.51 1.55 1.71 1.93
0.96 0.98 0.86 0.81 0.70 0.42 0.32 0.23 0.14 0.15 0.10 0.08 0.04 0.04 0.06 0.06 0.08 0.07 0.07 0.06 0.05 0.06 0.09 0.14 0.22 0.30 0.47 0.60 0.62 0.64 0.68 0.74 0.82 0.89 1.02 0.97 0.96 0.99 0.97 1.03 1.13 1.24 1.36
0.47 0.44 0.36 0.33 0.38 0.34 0.31 0.31 0.31 0.18 0.08 0.06 0.06 0.05 0.04 0.04 0.06 0.07 0.07 0.07 0.07 0.08 0.07 0.05 0.05 0.06 0.06 0.07 0.11 0.20 0.33 0.47 0.60 0.69 0.70 0.66 0.77 0.82 0.93 1.07 1.21 1.27 1.40
0.01 0.01 0.03 0.01 0.01 0.09 0.17 0.21 0.14 0.06 0.10 0.11 0.08 0.06 0.08 0.07 0.07 0.06 0.06 0.06 0.07 0.07 0.06 0.08 0.08 0.07 0.06 0.08 0.13 0.17 0.20 0.23 0.28 0.36 0.48 0.58 0.72 0.84 0.97 1.05 1.04 1.10 1.22
0.02 0.02 0.00 0.00 0.01 0.05 0.23 0.17 0.14 0.20 0.19 0.16 0.13 0.10 0.08 0.09 0.07 0.05 0.07 0.07 0.06 0.06 0.04 0.08 0.15 0.17 0.17 0.16 0.13 0.13 0.14 0.18 0.23 0.27 0.31 0.33 0.46 0.57 0.62 0.77 0.86 1.00 1.17
0.00 0.00 0.00 0.00 0.00 0.03 0.08 0.15 0.24 0.15 0.18 0.11 0.11 0.08 0.08 0.08 0.09 0.08 0.05 0.08 0.08 0.08 0.12 0.11 0.11 0.14 0.18 0.36 0.28 0.18 0.16 0.18 0.23 0.28 0.36 0.45 0.59 0.53 0.51 0.46 0.42 0.42 0.59
0.00 0.00 0.00 0.00 0.00 0.01 0.11 0.51 0.64 0.29 0.28 0.15 0.17 0.17 0.13 0.20 0.20 0.15 0.13 0.11 0.15 0.24 0.23 0.22 0.26 0.25 0.24 0.35 0.29 0.34 0.36 0.42 0.47 0.48 0.45 0.37 0.35 0.35 0.29 0.29 0.31 0.34 0.34
0.01 0.00 0.00 0.00 0.00 0.03 0.28 0.83 0.87 0.28 0.25 0.22 0.33 0.57 0.48 0.52 0.60 0.75 0.63 0.64 0.52 0.46 0.54 0.56 0.58 0.64 0.76 0.80 0.68 0.55 0.44 0.46 0.48 0.45 0.40 0.33 0.26 0.19 0.14 0.16 0.21 0.11 0.08
0.01 0.01 0.00 0.00 0.02 0.05 0.18 0.35 0.75 0.92 0.72 0.63 0.81 0.80 0.70 0.74 0.84 1.06 1.14 0.80 0.97 0.78 0.78 0.68 0.55 0.59 0.71 0.67 0.50 0.45 0.39 0.29 0.19 0.14 0.07 0.03 0.03 0.05 0.09 0.09 0.05 0.02 0.02
0.01 0.01 0.01 0.02 0.04 0.03 0.08 0.20 0.35 0.94 1.21 0.79 0.81 0.88 0.75 0.73 0.89 0.99 0.98 0.72 0.61 0.66 0.58 0.63 0.60 0.51 0.43 0.31 0.20 0.11 0.08 0.05 0.02 0.00 0.00 0.02 0.02 0.06 0.10 0.06 0.02 0.03 0.01
0.07 0.09 0.09 0.17 0.22 0.17 0.32 0.49 0.49 0.81 1.10 0.86 0.88 0.70 0.73 0.45 0.61 0.69 0.62 0.47 0.37 0.42 0.43 0.39 0.32 0.22 0.14 0.07 0.03 0.03 0.02 0.01 0.02 0.01 0.01 0.00 0.05 0.08 0.08 0.08 0.05 0.07 0.10
0.15 0.16 0.24 0.55 0.66 0.68 0.58 0.54 0.44 0.32 0.33 0.44 0.46 0.31 0.26 0.23 0.18 0.19 0.27 0.24 0.14 0.10 0.04 0.01 0.00 0.00 0.00 0.01 0.02 0.03 0.05 0.06 0.03 0.03 0.02 0.03 0.10 0.10 0.09 0.08 0.06 0.11 0.11
0.02 0.05 0.15 0.16 0.09 0.14 0.12 0.15 0.06 0.02 0.02 0.02 0.01 0.02 0.02 0.02 0.01 0.00 0.00 0.00 0.00 0.00 0.00 0.00 0.00 0.00 0.00 0.00 0.04 0.05 0.08 0.10 0.09 0.05 0.08 0.10 0.13 0.12 0.08 0.07 0.07 0.11 0.07
0.00 0.00 0.00 0.00 0.00 0.00 0.00 0.00 0.01 0.02 0.02 0.01 0.00 0.00 0.01 0.01 0.01 0.00 0.00 0.00 0.00 0.00 0.00 0.01 0.01 0.01 0.00 0.00 0.02 0.06 0.11 0.14 0.12 0.09 0.15 0.23 0.19 0.17 0.15 0.15 0.11 0.10 0.10
0.08 0.08 0.07 0.04 0.01 0.00 0.01 0.00 0.00 0.00 0.00 0.01 0.01 0.00 0.00 0.00 0.00 0.00 0.00 0.00 0.00 0.02 0.02 0.02 0.03 0.06 0.06 0.04 0.16 0.21 0.21 0.24 0.29 0.31 0.19 0.22 0.24 0.21 0.15 0.12 0.17 0.19 0.17
0.03 0.07 0.16 0.22 0.25 0.21 0.17 0.13 0.11 0.11 0.09 0.06 0.04 0.04 0.04 0.04 0.05 0.04 0.04 0.08 0.08 0.08 0.07 0.07 0.06 0.05 0.10 0.16 0.25 0.26 0.29 0.32 0.43 0.39 0.25 0.24 0.17 0.15 0.20 0.25 0.27 0.23 0.26

GFSMW_prec_precacc_129.txt.gz
Total_Precipitation_Accumulation
0.45 1.43 1.12 0.97 0.88 0.71 0.62 0.66 0.62 0.48 0.79 0.90 0.80 0.63 0.53 0.47 0.46 0.64 0.75 0.79 0.58 0.40 0.29 0.26 0.22 0.20 0.17 0.18 0.23 0.33 0.35 0.28 0.41 0.54 0.27 0.21 0.19 0.16 0.12 0.22 0.34 0.37 0.31
0.14 0.99 1.36 1.51 1.02 0.81 0.97 0.77 0.72 0.84 0.77 0.95 0.98 0.97 0.92 0.87 0.78 0.96 0.87 0.89 0.81 0.78 0.67 0.49 0.43 0.32 0.32 0.29 0.24 0.25 0.28 0.28 0.47 0.62 0.47 0.23 0.12 0.08 0.08 0.11 0.12 0.17 0.30
0.05 0.27 0.88 1.32 1.32 1.05 1.06 1.18 1.07 1.08 0.98 1.25 1.65 1.73 1.72 1.48 1.29 0.94 0.93 1.08 1.09 1.28 1.33 1.23 1.19 1.11 0.87 0.65 0.62 0.53 0.52 0.53 0.51 0.60 0.71 0.39 0.18 0.10 0.08 0.05 0.06 0.08 0.13
0.13 0.19 0.40 0.87 0.92 0.95 0.86 0.94 1.30 1.41 1.55 1.47 1.73 1.96 2.17 2.17 1.91 2.21 2.04 1.80 1.71 1.82 2.19 2.32 2.17 2.01 1.64 1.55 1.66 1.67 1.47 1.45 1.12 1.06 0.97 0.87 0.54 0.30 0.12 0.04 0.04 0.07 0.07
0.45 0.38 0.31 0.38 0.59 0.65 0.74 0.73 1.01 1.33 2.04 1.95 2.30 2.83 2.42 2.36 2.23 2.15 2.44 2.20 2.19 2.07 2.00 2.29 2.74 2.77 2.89 2.57 2.23 2.23 2.22 2.12 2.08 1.85 1.63 1.43 1.29 1.02 0.75 0.42 0.26 0.20 0.15
0.78 0.75 0.60 0.50 0.31 0.42 0.55 0.63 0.70 1.05 1.58 2.64 2.91 3.03 3.39 2.91 2.70 2.83 2.69 2.95 2.45 2.17 1.97 2.42 2.67 2.93 2.64 2.42 2.55 2.46 2.20 2.03 1.76 1.68 1.64 1.47 1.31 1.07 1.03 0.83 0.52 0.41 0.30
0.58 0.84 0.65 0.36 0.33 0.28 0.34 0.35 0.42 0.55 0.92 1.39 1.89 1.84 2.22 2.18 2.11 2.02 2.29 2.37 2.33 2.00 2.00 1.59 1.94 2.12 2.30 2.51 2.23 2.04 1.88 1.91 2.06 1.91 1.77 1.79 1.64 1.47 1.29 1.21 0.82 0.57 0.49
0.45 0.60 0.52 0.36 0.31 0.36 0.26 0.22 0.29 0.33 0.43 0.90 1.32 1.52 1.45 1.46 1.55 1.54 1.51 1.45 1.41 1.37 1.37 1.41 1.25 1.27 1.40 1.61 1.73 1.58 1.44 1.36 1.35 1.34 1.37 1.39 1.37 1.27 1.26 1.48 1.60 1.34 0.79
0.44 0.48 0.57 0.57 0.25 0.27 0.19 0.10 0.11 0.15 0.15 0.28 0.41 0.67 0.89 0.96 0.84 0.88 0.78 0.78 0.95 1.05 1.12 1.22 1.32 1.26 1.29 1.35 1.36 1.31 1.22 1.16 1.01 0.95 0.99 1.04 0.96 0.95 0.97 1.09 1.30 1.53 1.36
0.72 0.77 0.96 0.90 0.38 0.24 0.19 0.15 0.11 0.08 0.11 0.16 0.13 0.20 0.32 0.52 0.68 0.65 0.61 0.43 0.51 0.70 1.21 1.17 0.88 0.89 0.94 1.13 1.41 1.40 1.22 1.19 1.18 1.09 1.08 1.08 1.05 1.00 0.93 0.94 1.01 1.24 1.45
0.91 0.81 0.78 0.87 0.54 0.26 0.25 0.20 0.19 0.19 0.16 0.13 0.07 0.07 0.18 0.27 0.25 0.24 0.32 0.34 0.36 0.46 0.72 1.00 1.16 1.04 0.89 0.87 0.93 0.94 1.03 1.22 1.24 1.26 1.25 1.13 1.19 1.48 1.55 1.51 1.56 1.72 1.94
0.96 0.98 0.86 0.81 0.70 0.42 0.32 0.23 0.14 0.15 0.10 0.08 0.04 0.04 0.06 0.06 0.08 0.07 0.07 0.06 0.05 0.06 0.09 0.14 0.22 0.30 0.47 0.60 0.62 0.64 0.68 0.74 0.82 0.89 1.02 0.97 0.96 0.99 0.97 1.03 1.13 1.24 1.36
0.47 0.44 0.36 0.33 0.38 0.34 0.31 0.31 0.31 0.18 0.08 0.06 0.06 0.05 0.04 0.04 0.06 0.07 0.07 0.07 0.07 0.08 0.07 0.05 0.05 0.06 0.06 0.07 0.11 0.20 0.33 0.47 0.60 0.69 0.70 0.66 0.77 0.82 0.93 1.07 1.21 1.27 1.40
0.01 0.01 0.03 0.01 0.01 0.09 0.17 0.21 0.14 0.06 0.10 0.11 0.08 0.06 0.08 0.07 0.07 0.06 0.06 0.06 0.07 0.07 0.06 0.08 0.08 0.07 0.06 0.08 0.13 0.17 0.20 0.23 0.28 0.36 0.48 0.58 0.72 0.84 0.97 1.05 1.04 1.10 1.22
0.02 0.02 0.00 0.00 0.01 0.05 0.23 0.17 0.14 0.20 0.19 0.16 0.13 0.10 0.08 0.09 0.07 0.05 0.07 0.07 0.06 0.06 0.04 0.08 0.15 0.17 0.17 0.16 0.13 0.13 0.14 0.18 0.23 0.27 0.31 0.33 0.46 0.57 0.62 0.77 0.86 1.00 1.17
0.00 0.00 0.00 0.00 0.00 0.03 0.08 0.15 0.24 0.15 0.18 0.11 0.11 0.08 0.08 0.08 0.09 0.08 0.05 0.08 0.08 0.08 0.12 0.11 0.11 0.14 0.18 0.36 0.28 0.18 0.16 0.18 0.23 0.28 0.36 0.45 0.59 0.53 0.51 0.46 0.42 0.42 0.59
0.00 0.00 0.00 0.00 0.00 0.01 0.11 0.51 0.64 0.29 0.28 0.15 0.17 0.17 0.13 0.20 0.20 0.15 0.13 0.11 0.15 0.24 0.23 0.22 0.26 0.25 0.24 0.35 0.29 0.34 0.36 0.42 0.47 0.48 0.45 0.37 0.35 0.35 0.29 0.29 0.31 0.34 0.34
0.01 0.00 0.00 0.00 0.00 0.03 0.28 0.83 0.87 0.28 0.25 0.22 0.33 0.57 0.48 0.52 0.60 0.75 0.63 0.64 0.52 0.46 0.54 0.56 0.58 0.64 0.76 0.80 0.68 0.55 0.44 0.46 0.48 0.45 0.40 0.33 0.26 0.19 0.14 0.16 0.21 0.11 0.08
0.01 0.01 0.00 0.00 0.02 0.05 0.18 0.35 0.75 0.92 0.72 0.63 0.81 0.80 0.70 0.74 0.84 1.06 1.14 0.80 0.97 0.78 0.78 0.68 0.55 0.59 0.71 0.67 0.50 0.45 0.39 0.29 0.19 0.14 0.07 0.03 0.03 0.05 0.09 0.09 0.05 0.02 0.02
0.01 0.01 0.01 0.02 0.04 0.03 0.08 0.20 0.35 0.94 1.21 0.79 0.81 0.88 0.75 0.73 0.89 0.99 0.98 0.72 0.61 0.66 0.58 0.63 0.60 0.51 0.43 0.31 0.20 0.11 0.08 0.05 0.02 0.00 0.00 0.02 0.02 0.06 0.10 0.06 0.02 0.03 0.01
0.07 0.09 0.09 0.17 0.22 0.17 0.32 0.49 0.49 0.81 1.10 0.86 0.88 0.70 0.73 0.45 0.61 0.69 0.62 0.47 0.37 0.42 0.43 0.39 0.32 0.22 0.14 0.07 0.03 0.03 0.02 0.01 0.02 0.01 0.01 0.00 0.05 0.09 0.08 0.09 0.05 0.07 0.10
0.15 0.16 0.24 0.55 0.66 0.68 0.58 0.54 0.44 0.32 0.33 0.44 0.46 0.31 0.26 0.23 0.18 0.19 0.27 0.24 0.14 0.10 0.04 0.01 0.00 0.00 0.00 0.01 0.02 0.03 0.05 0.06 0.03 0.03 0.02 0.03 0.10 0.10 0.09 0.09 0.06 0.11 0.11
0.02 0.05 0.15 0.16 0.09 0.14 0.12 0.15 0.06 0.02 0.02 0.02 0.01 0.02 0.02 0.02 0.01 0.00 0.00 0.00 0.00 0.00 0.00 0.00 0.00 0.00 0.00 0.00 0.04 0.05 0.08 0.10 0.09 0.05 0.08 0.10 0.13 0.12 0.08 0.07 0.07 0.11 0.07
0.00 0.00 0.00 0.00 0.00 0.00 0.00 0.00 0.01 0.02 0.02 0.01 0.00 0.00 0.01 0.01 0.01 0.00 0.00 0.00 0.00 0.00 0.00 0.01 0.01 0.01 0.00 0.00 0.02 0.06 0.11 0.14 0.12 0.09 0.15 0.23 0.19 0.17 0.15 0.15 0.11 0.10 0.10
0.08 0.08 0.07 0.04 0.01 0.00 0.01 0.00 0.00 0.00 0.00 0.01 0.01 0.00 0.00 0.00 0.00 0.00 0.00 0.00 0.00 0.02 0.02 0.02 0.03 0.06 0.06 0.04 0.16 0.21 0.21 0.24 0.29 0.32 0.19 0.22 0.24 0.21 0.15 0.12 0.17 0.19 0.17
0.03 0.07 0.16 0.22 0.25 0.21 0.17 0.13 0.11 0.11 0.09 0.06 0.04 0.04 0.04 0.04 0.05 0.04 0.04 0.08 0.08 0.08 0.07 0.07 0.06 0.05 0.10 0.16 0.25 0.26 0.29 0.33 0.43 0.40 0.25 0.24 0.17 0.15 0.20 0.25 0.27 0.23 0.26

GFSMW_prec_precacc_132.txt.gz
Total_Precipitation_Accumulation
0.45 1.43 1.12 0.97 0.88 0.71 0.62 0.66 0.62 0.48 0.79 0.90 0.80 0.63 0.53 0.47 0.46 0.64 0.75 0.79 0.58 0.40 0.29 0.26 0.22 0.20 0.17 0.18 0.23 0.33 0.35 0.28 0.41 0.55 0.27 0.21 0.19 0.16 0.13 0.24 0.37 0.39 0.34
0.14 0.99 1.36 1.51 1.02 0.81 0.97 0.77 0.72 0.84 0.77 0.95 0.98 0.97 0.92 0.87 0.78 0.96 0.87 0.89 0.81 0.78 0.67 0.49 0.43 0.32 0.32 0.29 0.24 0.25 0.28 0.28 0.47 0.63 0.49 0.24 0.12 0.09 0.09 0.14 0.16 0.20 0.36
0.05 0.27 0.88 1.32 1.32 1.05 1.06 1.18 1.07 1.08 0.98 1.25 1.65 1.73 1.72 1.48 1.29 0.94 0.93 1.08 1.09 1.28 1.33 1.23 1.19 1.11 0.87 0.65 0.62 0.53 0.52 0.54 0.51 0.61 0.74 0.42 0.21 0.17 0.18 0.16 0.18 0.19 0.24
0.13 0.19 0.40 0.87 0.92 0.95 0.86 0.94 1.30 1.41 1.55 1.47 1.73 1.96 2.17 2.17 1.91 2.21 2.04 1.80 1.71 1.82 2.19 2.32 2.17 2.01 1.64 1.55 1.66 1.67 1.48 1.46 1.12 1.06 0.99 0.92 0.65 0.51 0.40 0.29 0.31 0.21 0.21
0.45 0.38 0.31 0.38 0.59 0.65 0.74 0.73 1.01 1.33 2.04 1.95 2.30 2.83 2.42 2.36 2.23 2.15 2.44 2.20 2.19 2.07 2.00 2.29 2.74 2.77 2.89 2.57 2.23 2.23 2.22 2.12 2.09 1.85 1.63 1.44 1.34 1.38 1.26 0.82 0.46 0.36 0.35
0.78 0.75 0.60 0.50 0.31 0.42 0.55 0.63 0.70 1.05 1.58 2.64 2.91 3.03 3.39 2.91 2.70 2.83 2.69 2.95 2.45 2.17 1.97 2.42 2.67 2.93 2.64 2.42 2.55 2.46 2.20 2.03 1.76 1.68 1.64 1.48 1.31 1.15 1.16 0.90 0.55 0.42 0.34
0.58 0.84 0.65 0.36 0.33 0.28 0.34 0.35 0.42 0.55 0.92 1.39 1.89 1.84 2.22 2.18 2.11 2.02 2.29 2.37 2.33 2.00 2.00 1.59 1.94 2.12 2.30 2.51 2.23 2.04 1.88 1.91 2.06 1.91 1.77 1.79 1.64 1.47 1.31 1.22 0.82 0.57 0.49
0.45 0.60 0.52 0.36 0.31 0.36 0.26 0.22 0.29 0.33 0.43 0.90 1.32 1.52 1.45 1.46 1.55 1.54 1.51 1.45 1.41 1.37 1.37 1.41 1.25 1.27 1.40 1.61 1.73 1.58 1.44 1.36 1.35 1.34 1.37 1.40 1.37 1.27 1.27 1.48 1.60 1.34 0.79
0.44 0.48 0.57 0.57 0.25 0.27 0.19 0.10 0.11 0.15 0.15 0.28 0.41 0.67 0.89 0.96 0.84 0.88 0.78 0.78 0.95 1.05 1.12 1.22 1.32 1.26 1.29 1.35 1.36 1.31 1.22 1.16 1.01 0.95 0.99 1.04 0.96 0.95 0.97 1.09 1.30 1.53 1.36
0.72 0.77 0.96 0.90 0.38 0.24 0.19 0.15 0.11 0.08 0.11 0.16 0.13 0.20 0.32 0.52 0.68 0.65 0.61 0.43 0.51 0.70 1.21 1.17 0.88 0.89 0.94 1.13 1.41 1.40 1.22 1.19 1.18 1.09 1.08 1.08 1.05 1.00 0.93 0.94 1.01 1.24 1.45
0.91 0.81 0.78 0.87 0.54 0.26 0.25 0.20 0.19 0.19 0.16 0.13 0.07 0.07 0.18 0.27 0.25 0.24 0.32 0.34 0.36 0.46 0.72 1.00 1.16 1.04 0.89 0.87 0.93 0.94 1.03 1.22 1.24 1.26 1.25 1.13 1.19 1.48 1.55 1.51 1.56 1.72 1.94
0.96 0.98 0.86 0.81 0.70 0.42 0.32 0.23 0.14 0.15 0.10 0.08 0.04 0.04 0.06 0.06 0.08 0.07 0.07 0.06 0.05 0.06 0.09 0.14 0.22 0.30 0.47 0.60 0.62 0.64 0.68 0.74 0.82 0.89 1.02 0.97 0.96 0.99 0.97 1.03 1.13 1.24 1.36
0.47 0.44 0.36 0.33 0.38 0.34 0.31 0.31 0.31 0.18 0.08 0.06 0.06 0.05 0.04 0.04 0.06 0.07 0.07 0.07 0.07 0.08 0.07 0.05 0.05 0.06 0.06 0.07 0.11 0.20 0.33 0.47 0.60 0.69 0.70 0.66 0.77 0.82 0.93 1.07 1.21 1.27 1.40
0.01 0.01 0.03 0.01 0.01 0.09 0.17 0.21 0.14 0.06 0.10 0.11 0.08 0.06 0.08 0.07 0.07 0.06 0.06 0.06 0.07 0.07 0.06 0.08 0.08 0.07 0.06 0.08 0.13 0.17 0.20 0.23 0.28 0.36 0.48 0.58 0.72 0.84 0.97 1.05 1.04 1.10 1.22
0.02 0.02 0.00 0.00 0.01 0.05 0.23 0.17 0.14 0.20 0.19 0.16 0.13 0.10 0.08 0.09 0.07 0.05 0.07 0.07 0.06 0.06 0.04 0.08 0.15 0.17 0.17 0.16 0.13 0.13 0.14 0.18 0.23 0.27 0.31 0.33 0.46 0.57 0.62 0.77 0.86 1.00 1.17
0.00 0.00 0.00 0.00 0.00 0.03 0.08 0.15 0.24 0.15 0.18 0.11 0.11 0.08 0.08 0.08 0.09 0.08 0.05 0.08 0.08 0.08 0.12 0.11 0.11 0.14 0.18 0.36 0.28 0.18 0.16 0.18 0.23 0.28 0.36 0.45 0.59 0.53 0.51 0.46 0.42 0.42 0.59
0.00 0.00 0.00 0.00 0.00 0.01 0.11 0.51 0.64 0.29 0.28 0.15 0.17 0.17 0.13 0.20 0.20 0.15 0.13 0.11 0.15 0.24 0.23 0.22 0.26 0.25 0.24 0.35 0.29 0.34 0.36 0.42 0.47 0.48 0.45 0.37 0.35 0.35 0.29 0.29 0.31 0.34 0.34
0.01 0.00 0.00 0.00 0.00 0.03 0.28 0.83 0.87 0.28 0.25 0.22 0.33 0.57 0.48 0.52 0.60 0.75 0.63 0.64 0.52 0.46 0.54 0.56 0.58 0.64 0.76 0.80 0.68 0.55 0.44 0.46 0.48 0.45 0.40 0.33 0.26 0.19 0.14 0.16 0.21 0.11 0.08
0.01 0.01 0.00 0.00 0.02 0.05 0.18 0.35 0.75 0.92 0.72 0.63 0.81 0.80 0.70 0.74 0.84 1.06 1.14 0.80 0.97 0.78 0.78 0.68 0.55 0.60 0.71 0.67 0.50 0.45 0.39 0.29 0.19 0.14 0.07 0.03 0.03 0.05 0.09 0.09 0.05 0.02 0.02
0.01 0.01 0.01 0.02 0.04 0.03 0.08 0.20 0.35 0.94 1.21 0.79 0.81 0.88 0.75 0.73 0.89 0.99 0.98 0.72 0.61 0.66 0.58 0.63 0.60 0.51 0.43 0.31 0.20 0.11 0.08 0.05 0.02 0.00 0.00 0.02 0.02 0.06 0.10 0.06 0.02 0.03 0.01
0.07 0.09 0.09 0.17 0.22 0.17 0.32 0.49 0.49 0.81 1.10 0.86 0.88 0.70 0.73 0.45 0.61 0.69 0.62 0.47 0.37 0.42 0.43 0.39 0.32 0.22 0.14 0.07 0.03 0.03 0.02 0.01 0.02 0.01 0.01 0.00 0.05 0.09 0.09 0.09 0.05 0.07 0.10
0.15 0.16 0.24 0.55 0.66 0.68 0.58 0.54 0.44 0.32 0.33 0.44 0.46 0.31 0.26 0.23 0.18 0.19 0.27 0.24 0.14 0.10 0.04 0.01 0.00 0.00 0.00 0.01 0.02 0.03 0.05 0.06 0.03 0.03 0.02 0.03 0.10 0.11 0.10 0.09 0.06 0.11 0.11
0.02 0.05 0.15 0.16 0.09 0.14 0.12 0.15 0.06 0.02 0.02 0.02 0.01 0.02 0.02 0.02 0.01 0.00 0.00 0.00 0.00 0.00 0.00 0.00 0.00 0.00 0.00 0.00 0.04 0.05 0.08 0.10 0.09 0.05 0.08 0.10 0.14 0.12 0.09 0.07 0.07 0.11 0.07
0.00 0.00 0.00 0.00 0.00 0.00 0.00 0.00 0.01 0.02 0.02 0.01 0.00 0.00 0.01 0.01 0.01 0.00 0.00 0.00 0.00 0.00 0.00 0.01 0.01 0.01 0.00 0.00 0.02 0.06 0.11 0.14 0.12 0.09 0.15 0.23 0.20 0.17 0.15 0.15 0.11 0.10 0.10
0.08 0.08 0.07 0.04 0.01 0.00 0.01 0.00 0.00 0.00 0.00 0.01 0.01 0.00 0.00 0.00 0.00 0.00 0.00 0.00 0.00 0.02 0.03 0.02 0.04 0.06 0.06 0.04 0.16 0.21 0.21 0.24 0.29 0.32 0.20 0.22 0.24 0.21 0.15 0.12 0.17 0.19 0.17
0.03 0.07 0.16 0.22 0.25 0.21 0.17 0.13 0.11 0.11 0.09 0.06 0.04 0.04 0.04 0.04 0.05 0.04 0.04 0.08 0.08 0.08 0.08 0.07 0.06 0.06 0.10 0.16 0.25 0.26 0.29 0.33 0.43 0.40 0.25 0.25 0.17 0.15 0.20 0.25 0.27 0.23 0.26

GFSMW_prec_precacc_135.txt.gz
Total_Precipitation_Accumulation
0.45 1.43 1.12 0.97 0.88 0.71 0.62 0.66 0.62 0.48 0.79 0.90 0.80 0.63 0.53 0.47 0.46 0.64 0.75 0.79 0.58 0.40 0.29 0.26 0.22 0.20 0.17 0.18 0.23 0.33 0.35 0.28 0.41 0.55 0.27 0.21 0.19 0.16 0.13 0.24 0.37 0.40 0.35
0.14 0.99 1.36 1.51 1.02 0.81 0.97 0.77 0.72 0.84 0.77 0.95 0.98 0.97 0.92 0.87 0.78 0.96 0.87 0.89 0.81 0.78 0.67 0.49 0.43 0.32 0.32 0.29 0.24 0.25 0.28 0.28 0.47 0.64 0.50 0.24 0.12 0.09 0.09 0.14 0.17 0.21 0.40
0.05 0.27 0.88 1.32 1.32 1.05 1.06 1.18 1.07 1.08 0.98 1.25 1.65 1.73 1.72 1.48 1.29 0.94 0.93 1.08 1.09 1.28 1.33 1.23 1.19 1.11 0.87 0.65 0.62 0.53 0.52 0.54 0.51 0.61 0.76 0.44 0.22 0.17 0.18 0.16 0.20 0.27 0.36
0.13 0.19 0.40 0.87 0.92 0.95 0.86 0.94 1.30 1.41 1.55 1.47 1.73 1.96 2.17 2.17 1.91 2.21 2.04 1.80 1.71 1.82 2.19 2.32 2.17 2.01 1.64 1.55 1.66 1.67 1.48 1.46 1.13 1.06 0.99 0.92 0.66 0.55 0.40 0.30 0.34 0.48 1.09
0.45 0.38 0.31 0.38 0.59 0.65 0.74 0.73 1.01 1.33 2.04 1.95 2.30 2.83 2.42 2.36 2.23 2.15 2.44 2.20 2.19 2.07 2.00 2.29 2.74 2.77 2.89 2.57 2.23 2.23 2.22 2.12 2.09 1.85 1.64 1.44 1.34 1.38 1.26 0.85 0.63 0.56 0.97
0.78 0.75 0.60 0.50 0.31 0.42 0.55 0.63 0.70 1.05 1.58 2.64 2.91 3.03 3.39 2.91 2.70 2.83 2.69 2.95 2.45 2.17 1.97 2.42 2.67 2.93 2.64 2.42 2.55 2.46 2.20 2.03 1.76 1.68 1.64 1.48 1.31 1.15 1.16 0.91 0.55 0.42 0.35
0.58 0.84 0.65 0.36 0.33 0.28 0.34 0.35 0.42 0.55 0.92 1.39 1.89 1.84 2.22 2.18 2.11 2.02 2.29 2.37 2.33 2.00 2.00 1.59 1.94 2.12 2.30 2.51 2.23 2.04 1.88 1.91 2.06 1.91 1.77 1.79 1.64 1.47 1.31 1.23 0.82 0.57 0.50
0.45 0.60 0.52 0.36 0.31 0.36 0.26 0.22 0.29 0.33 0.43 0.90 1.32 1.52 1.45 1.46 1.55 1.54 1.51 1.45 1.41 1.37 1.37 1.41 1.25 1.27 1.40 1.61 1.73 1.58 1.44 1.36 1.35 1.34 1.37 1.40 1.37 1.27 1.27 1.48 1.60 1.34 0.80
0.44 0.48 0.57 0.57 0.25 0.27 0.19 0.10 0.11 0.15 0.15 0.28 0.41 0.67 0.89 0.96 0.84 0.88 0.78 0.78 0.95 1.05 1.12 1.22 1.32 1.26 1.29 1.35 1.36 1.31 1.22 1.16 1.01 0.95 0.99 1.04 0.96 0.95 0.97 1.09 1.30 1.53 1.37
0.72 0.77 0.96 0.90 0.38 0.24 0.19 0.15 0.11 0.08 0.11 0.16 0.13 0.20 0.32 0.52 0.68 0.65 0.61 0.43 0.51 0.70 1.21 1.17 0.88 0.89 0.94 1.13 1.41 1.40 1.22 1.19 1.18 1.09 1.08 1.08 1.05 1.00 0.93 0.94 1.01 1.24 1.45
0.91 0.81 0.78 0.87 0.54 0.26 0.25 0.20 0.19 0.19 0.16 0.13 0.07 0.07 0.18 0.27 0.25 0.24 0.32 0.34 0.36 0.46 0.72 1.00 1.16 1.04 0.89 0.87 0.93 0.94 1.03 1.22 1.24 1.26 1.25 1.13 1.19 1.48 1.55 1.51 1.56 1.72 1.94
0.96 0.98 0.86 0.81 0.70 0.42 0.32 0.23 0.14 0.15 0.10 0.08 0.04 0.04 0.06 0.06 0.08 0.07 0.07 0.06 0.05 0.06 0.09 0.14 0.22 0.30 0.47 0.60 0.62 0.64 0.68 0.74 0.82 0.89 1.02 0.97 0.96 0.99 0.97 1.03 1.13 1.24 1.36
0.47 0.44 0.36 0.33 0.38 0.34 0.31 0.31 0.31 0.18 0.08 0.06 0.06 0.05 0.04 0.04 0.06 0.07 0.07 0.07 0.07 0.08 0.07 0.05 0.05 0.06 0.06 0.07 0.11 0.20 0.33 0.47 0.60 0.69 0.70 0.66 0.77 0.82 0.93 1.07 1.21 1.27 1.40
0.01 0.01 0.03 0.01 0.01 0.09 0.17 0.21 0.14 0.06 0.10 0.11 0.08 0.06 0.08 0.07 0.07 0.06 0.06 0.06 0.07 0.07 0.06 0.08 0.08 0.07 0.06 0.08 0.13 0.17 0.20 0.23 0.28 0.36 0.48 0.58 0.72 0.84 0.97 1.05 1.04 1.10 1.22
0.02 0.02 0.00 0.00 0.01 0.05 0.23 0.17 0.14 0.20 0.19 0.16 0.13 0.10 0.08 0.09 0.07 0.05 0.07 0.07 0.06 0.06 0.04 0.08 0.15 0.17 0.17 0.16 0.13 0.13 0.14 0.18 0.23 0.27 0.31 0.33 0.46 0.57 0.62 0.77 0.86 1.00 1.17
0.00 0.00 0.00 0.00 0.00 0.03 0.08 0.15 0.24 0.15 0.18 0.11 0.11 0.08 0.08 0.08 0.09 0.08 0.05 0.08 0.08 0.08 0.12 0.11 0.11 0.14 0.18 0.36 0.28 0.18 0.16 0.18 0.23 0.28 0.36 0.45 0.59 0.53 0.51 0.46 0.42 0.42 0.59
0.00 0.00 0.00 0.00 0.00 0.01 0.11 0.51 0.64 0.29 0.28 0.15 0.17 0.17 0.13 0.20 0.20 0.15 0.13 0.11 0.15 0.24 0.23 0.22 0.26 0.25 0.24 0.35 0.29 0.34 0.36 0.42 0.47 0.48 0.45 0.37 0.35 0.35 0.29 0.29 0.31 0.34 0.34
0.01 0.00 0.00 0.00 0.00 0.03 0.28 0.83 0.87 0.28 0.25 0.22 0.33 0.57 0.48 0.52 0.60 0.75 0.63 0.64 0.52 0.46 0.54 0.56 0.58 0.64 0.76 0.80 0.68 0.55 0.44 0.46 0.48 0.45 0.40 0.33 0.26 0.19 0.14 0.16 0.21 0.11 0.08
0.01 0.01 0.00 0.00 0.02 0.05 0.18 0.35 0.75 0.92 0.72 0.63 0.81 0.80 0.70 0.74 0.84 1.06 1.14 0.80 0.97 0.78 0.78 0.68 0.55 0.60 0.71 0.67 0.50 0.45 0.39 0.29 0.19 0.14 0.07 0.03 0.03 0.05 0.09 0.09 0.05 0.02 0.02
0.01 0.01 0.01 0.02 0.04 0.03 0.08 0.20 0.35 0.94 1.21 0.79 0.81 0.88 0.75 0.73 0.89 0.99 0.98 0.72 0.61 0.66 0.58 0.63 0.60 0.51 0.43 0.31 0.20 0.11 0.08 0.05 0.02 0.00 0.00 0.02 0.02 0.06 0.10 0.06 0.02 0.03 0.01
0.07 0.09 0.09 0.17 0.22 0.17 0.32 0.49 0.49 0.81 1.10 0.86 0.88 0.70 0.73 0.45 0.61 0.69 0.62 0.47 0.37 0.42 0.43 0.40 0.33 0.22 0.14 0.07 0.03 0.03 0.02 0.01 0.02 0.01 0.01 0.00 0.05 0.09 0.09 0.09 0.05 0.08 0.10
0.15 0.16 0.24 0.55 0.66 0.68 0.58 0.54 0.44 0.32 0.33 0.44 0.46 0.31 0.26 0.23 0.18 0.19 0.27 0.24 0.14 0.10 0.05 0.02 0.00 0.00 0.00 0.01 0.02 0.03 0.05 0.06 0.03 0.03 0.02 0.03 0.10 0.11 0.10 0.09 0.07 0.11 0.11
0.02 0.05 0.15 0.16 0.09 0.14 0.12 0.15 0.06 0.02 0.02 0.02 0.01 0.02 0.02 0.02 0.01 0.00 0.00 0.00 0.00 0.00 0.01 0.01 0.00 0.00 0.00 0.00 0.04 0.05 0.08 0.10 0.09 0.05 0.08 0.10 0.14 0.13 0.09 0.08 0.07 0.11 0.07
0.00 0.00 0.00 0.00 0.00 0.00 0.00 0.00 0.01 0.02 0.02 0.01 0.00 0.00 0.01 0.01 0.01 0.00 0.00 0.00 0.00 0.00 0.00 0.01 0.01 0.01 0.00 0.00 0.02 0.06 0.11 0.14 0.12 0.09 0.15 0.23 0.20 0.17 0.15 0.15 0.11 0.10 0.10
0.08 0.08 0.07 0.04 0.01 0.00 0.01 0.00 0.00 0.00 0.00 0.01 0.01 0.00 0.00 0.00 0.00 0.00 0.00 0.00 0.00 0.02 0.03 0.02 0.04 0.06 0.06 0.04 0.16 0.21 0.21 0.24 0.29 0.32 0.20 0.22 0.24 0.21 0.15 0.12 0.17 0.19 0.17
0.03 0.07 0.16 0.22 0.25 0.21 0.17 0.13 0.11 0.11 0.09 0.06 0.04 0.04 0.04 0.04 0.05 0.04 0.04 0.08 0.08 0.08 0.08 0.08 0.07 0.06 0.10 0.16 0.25 0.26 0.29 0.33 0.43 0.40 0.25 0.25 0.17 0.15 0.20 0.25 0.27 0.23 0.26

GFSMW_prec_precacc_138.txt.gz
Total_Precipitation_Accumulation
0.45 1.43 1.12 0.97 0.88 0.71 0.62 0.66 0.62 0.48 0.79 0.90 0.80 0.63 0.53 0.47 0.46 0.64 0.75 0.79 0.58 0.40 0.29 0.26 0.22 0.20 0.17 0.18 0.23 0.33 0.35 0.28 0.41 0.55 0.27 0.21 0.19 0.16 0.13 0.24 0.37 0.40 0.35
0.14 0.99 1.36 1.51 1.02 0.81 0.97 0.77 0.72 0.84 0.77 0.95 0.98 0.97 0.92 0.87 0.78 0.96 0.87 0.89 0.81 0.78 0.67 0.49 0.43 0.32 0.32 0.29 0.24 0.25 0.28 0.28 0.47 0.64 0.50 0.24 0.12 0.09 0.09 0.14 0.17 0.21 0.40
0.05 0.27 0.88 1.32 1.32 1.05 1.06 1.18 1.07 1.08 0.98 1.25 1.65 1.73 1.72 1.48 1.29 0.94 0.93 1.08 1.09 1.28 1.33 1.23 1.19 1.11 0.87 0.65 0.62 0.53 0.52 0.54 0.51 0.61 0.76 0.44 0.22 0.18 0.18 0.16 0.21 0.27 0.36
0.13 0.19 0.40 0.87 0.92 0.95 0.86 0.94 1.30 1.41 1.55 1.47 1.73 1.96 2.17 2.17 1.91 2.21 2.04 1.80 1.71 1.82 2.19 2.32 2.17 2.01 1.64 1.55 1.66 1.67 1.48 1.46 1.13 1.06 0.99 0.92 0.67 0.56 0.41 0.30 0.34 0.48 1.09
0.45 0.38 0.31 0.38 0.59 0.65 0.74 0.73 1.01 1.33 2.04 1.95 2.30 2.83 2.42 2.36 2.23 2.15 2.44 2.20 2.19 2.07 2.00 2.29 2.74 2.77 2.89 2.57 2.23 2.23 2.22 2.12 2.09 1.85 1.64 1.44 1.34 1.38 1.27 0.85 0.63 0.56 0.97
0.78 0.75 0.60 0.50 0.31 0.42 0.55 0.63 0.70 1.05 1.58 2.64 2.91 3.03 3.39 2.91 2.70 2.83 2.69 2.95 2.45 2.17 1.97 2.42 2.67 2.93 2.64 2.42 2.55 2.46 2.20 2.03 1.76 1.68 1.64 1.48 1.31 1.15 1.16 0.91 0.55 0.42 0.35
0.58 0.84 0.65 0.36 0.33 0.28 0.34 0.35 0.42 0.55 0.92 1.39 1.89 1.84 2.22 2.18 2.11 2.02 2.29 2.37 2.33 2.00 2.00 1.59 1.94 2.12 2.30 2.51 2.23 2.04 1.88 1.91 2.06 1.91 1.77 1.79 1.64 1.47 1.31 1.23 0.82 0.57 0.50
0.45 0.60 0.52 0.36 0.31 0.36 0.26 0.22 0.29 0.33 0.43 0.90 1.32 1.52 1.45 1.46 1.55 1.54 1.51 1.45 1.41 1.37 1.37 1.41 1.25 1.27 1.40 1.61 1.73 1.58 1.44 1.36 1.35 1.34 1.37 1.40 1.37 1.27 1.27 1.48 1.60 1.34 0.80
0.44 0.48 0.57 0.57 0.25 0.27 0.19 0.10 0.11 0.15 0.15 0.28 0.41 0.67 0.89 0.96 0.84 0.88 0.78 0.78 0.95 1.05 1.12 1.22 1.32 1.26 1.29 1.35 1.36 1.31 1.22 1.16 1.01 0.95 0.99 1.04 0.96 0.95 0.97 1.09 1.30 1.53 1.37
0.72 0.77 0.96 0.90 0.38 0.24 0.19 0.15 0.11 0.08 0.11 0.16 0.13 0.20 0.32 0.52 0.68 0.65 0.61 0.43 0.51 0.70 1.21 1.17 0.88 0.89 0.94 1.13 1.41 1.40 1.22 1.19 1.18 1.09 1.08 1.08 1.05 1.00 0.93 0.94 1.01 1.24 1.45
0.91 0.81 0.78 0.87 0.54 0.26 0.25 0.20 0.19 0.19 0.16 0.13 0.07 0.07 0.18 0.27 0.25 0.24 0.32 0.34 0.36 0.46 0.72 1.00 1.16 1.04 0.89 0.87 0.93 0.94 1.03 1.22 1.24 1.26 1.25 1.13 1.19 1.48 1.55 1.51 1.56 1.72 1.94
0.96 0.98 0.86 0.81 0.70 0.42 0.32 0.23 0.14 0.15 0.10 0.08 0.04 0.04 0.06 0.06 0.08 0.07 0.07 0.06 0.05 0.06 0.09 0.14 0.22 0.30 0.47 0.60 0.62 0.64 0.68 0.74 0.82 0.89 1.02 0.97 0.96 0.99 0.97 1.03 1.13 1.24 1.36
0.47 0.44 0.36 0.33 0.38 0.34 0.31 0.31 0.31 0.18 0.08 0.06 0.06 0.05 0.04 0.04 0.06 0.07 0.07 0.07 0.07 0.08 0.07 0.05 0.05 0.06 0.06 0.07 0.11 0.20 0.33 0.47 0.60 0.69 0.70 0.66 0.77 0.82 0.93 1.07 1.21 1.27 1.40
0.01 0.01 0.03 0.01 0.01 0.09 0.17 0.21 0.14 0.06 0.10 0.11 0.08 0.06 0.08 0.07 0.07 0.06 0.06 0.06 0.07 0.07 0.06 0.08 0.08 0.07 0.06 0.08 0.13 0.17 0.20 0.23 0.28 0.36 0.48 0.58 0.72 0.84 0.97 1.05 1.04 1.10 1.22
0.02 0.02 0.00 0.00 0.01 0.05 0.23 0.17 0.14 0.20 0.19 0.16 0.13 0.10 0.08 0.09 0.07 0.05 0.07 0.07 0.06 0.06 0.04 0.08 0.15 0.17 0.17 0.16 0.13 0.13 0.14 0.18 0.23 0.27 0.31 0.33 0.46 0.57 0.62 0.77 0.86 1.00 1.17
0.00 0.00 0.00 0.00 0.00 0.03 0.08 0.15 0.24 0.15 0.18 0.11 0.11 0.08 0.08 0.08 0.09 0.08 0.05 0.08 0.08 0.08 0.12 0.11 0.11 0.14 0.18 0.36 0.28 0.18 0.16 0.18 0.23 0.28 0.36 0.45 0.59 0.53 0.51 0.46 0.42 0.42 0.59
0.00 0.00 0.00 0.00 0.00 0.01 0.11 0.51 0.64 0.29 0.28 0.15 0.17 0.17 0.13 0.20 0.20 0.15 0.13 0.11 0.15 0.24 0.23 0.22 0.26 0.25 0.24 0.35 0.29 0.34 0.36 0.42 0.47 0.48 0.45 0.37 0.35 0.35 0.29 0.29 0.31 0.34 0.34
0.01 0.00 0.00 0.00 0.00 0.03 0.28 0.83 0.87 0.28 0.25 0.22 0.33 0.57 0.48 0.52 0.60 0.75 0.63 0.64 0.52 0.46 0.54 0.56 0.58 0.64 0.76 0.80 0.68 0.55 0.44 0.46 0.48 0.45 0.40 0.33 0.26 0.19 0.14 0.16 0.21 0.11 0.08
0.01 0.01 0.00 0.00 0.02 0.05 0.18 0.35 0.75 0.92 0.72 0.63 0.81 0.80 0.70 0.74 0.84 1.06 1.14 0.80 0.97 0.78 0.78 0.68 0.55 0.60 0.71 0.67 0.50 0.45 0.39 0.29 0.19 0.14 0.07 0.03 0.03 0.05 0.09 0.09 0.05 0.02 0.02
0.01 0.01 0.01 0.02 0.04 0.03 0.08 0.20 0.35 0.94 1.21 0.79 0.81 0.88 0.75 0.73 0.89 0.99 0.98 0.72 0.61 0.66 0.58 0.63 0.60 0.51 0.43 0.32 0.20 0.11 0.08 0.05 0.02 0.00 0.00 0.02 0.02 0.06 0.10 0.06 0.02 0.03 0.01
0.07 0.09 0.09 0.17 0.22 0.17 0.32 0.49 0.49 0.81 1.10 0.86 0.88 0.70 0.73 0.45 0.61 0.69 0.62 0.47 0.37 0.42 0.43 0.40 0.33 0.23 0.15 0.08 0.04 0.03 0.02 0.01 0.02 0.01 0.01 0.00 0.05 0.09 0.09 0.09 0.06 0.08 0.10
0.15 0.16 0.24 0.55 0.66 0.68 0.58 0.54 0.44 0.32 0.33 0.44 0.46 0.31 0.26 0.23 0.18 0.19 0.27 0.24 0.14 0.10 0.05 0.02 0.01 0.01 0.02 0.03 0.02 0.03 0.05 0.06 0.03 0.03 0.02 0.03 0.10 0.11 0.10 0.10 0.07 0.12 0.11
0.02 0.05 0.15 0.16 0.09 0.14 0.12 0.15 0.06 0.02 0.02 0.02 0.01 0.02 0.02 0.02 0.01 0.00 0.00 0.00 0.00 0.00 0.01 0.01 0.01 0.02 0.02 0.02 0.04 0.05 0.08 0.10 0.09 0.05 0.08 0.10 0.14 0.13 0.09 0.08 0.07 0.11 0.07
0.00 0.00 0.00 0.00 0.00 0.00 0.00 0.00 0.01 0.02 0.02 0.01 0.00 0.00 0.01 0.01 0.01 0.00 0.00 0.00 0.00 0.00 0.01 0.01 0.02 0.02 0.01 0.00 0.02 0.06 0.11 0.14 0.12 0.09 0.15 0.23 0.20 0.17 0.15 0.15 0.12 0.10 0.10
0.08 0.08 0.07 0.04 0.01 0.00 0.01 0.00 0.00 0.00 0.00 0.01 0.01 0.00 0.00 0.00 0.00 0.00 0.00 0.00 0.00 0.02 0.03 0.02 0.04 0.06 0.06 0.04 0.17 0.21 0.21 0.24 0.29 0.32 0.20 0.22 0.24 0.21 0.15 0.12 0.17 0.19 0.17
0.03 0.07 0.16 0.22 0.25 0.21 0.17 0.13 0.11 0.11 0.09 0.06 0.04 0.04 0.04 0.04 0.05 0.04 0.04 0.08 0.08 0.08 0.08 0.08 0.07 0.06 0.10 0.16 0.25 0.26 0.29 0.33 0.43 0.40 0.25 0.25 0.17 0.15 0.20 0.25 0.27 0.23 0.26

GFSMW_prec_precacc_141.txt.gz
Total_Precipitation_Accumulation
0.45 1.43 1.12 0.97 0.88 0.71 0.62 0.66 0.62 0.48 0.79 0.90 0.80 0.63 0.53 0.47 0.46 0.64 0.75 0.79 0.58 0.40 0.29 0.26 0.22 0.20 0.17 0.18 0.23 0.33 0.35 0.28 0.41 0.55 0.27 0.21 0.19 0.16 0.13 0.24 0.37 0.40 0.35
0.14 0.99 1.36 1.51 1.02 0.81 0.97 0.77 0.72 0.84 0.77 0.95 0.98 0.97 0.92 0.87 0.78 0.96 0.87 0.89 0.81 0.78 0.67 0.49 0.43 0.32 0.32 0.29 0.24 0.25 0.28 0.28 0.47 0.64 0.50 0.24 0.12 0.09 0.09 0.14 0.17 0.21 0.40
0.05 0.27 0.88 1.32 1.32 1.05 1.06 1.18 1.07 1.08 0.98 1.25 1.65 1.73 1.72 1.48 1.29 0.94 0.93 1.08 1.09 1.28 1.33 1.23 1.19 1.11 0.87 0.65 0.62 0.53 0.52 0.54 0.51 0.61 0.77 0.45 0.22 0.18 0.18 0.16 0.21 0.27 0.36
0.13 0.19 0.40 0.87 0.92 0.95 0.86 0.94 1.30 1.41 1.55 1.47 1.73 1.96 2.17 2.17 1.91 2.21 2.04 1.80 1.71 1.82 2.19 2.32 2.17 2.01 1.64 1.55 1.66 1.67 1.48 1.46 1.13 1.06 0.99 0.92 0.67 0.56 0.41 0.30 0.34 0.48 1.09
0.45 0.38 0.31 0.38 0.59 0.65 0.74 0.73 1.01 1.33 2.04 1.95 2.30 2.83 2.42 2.36 2.23 2.15 2.44 2.20 2.19 2.07 2.00 2.29 2.74 2.77 2.89 2.57 2.23 2.23 2.22 2.12 2.09 1.85 1.64 1.44 1.34 1.38 1.27 0.85 0.63 0.56 0.97
0.78 0.75 0.60 0.50 0.31 0.42 0.55 0.63 0.70 1.05 1.58 2.64 2.91 3.03 3.39 2.91 2.70 2.83 2.69 2.95 2.45 2.17 1.97 2.42 2.67 2.93 2.64 2.42 2.55 2.46 2.20 2.03 1.76 1.68 1.64 1.48 1.31 1.15 1.16 0.91 0.55 0.42 0.35
0.58 0.84 0.65 0.36 0.33 0.28 0.34 0.35 0.42 0.55 0.92 1.39 1.89 1.84 2.22 2.18 2.11 2.02 2.29 2.37 2.33 2.00 2.00 1.59 1.94 2.12 2.30 2.51 2.23 2.04 1.88 1.91 2.06 1.91 1.77 1.79 1.64 1.47 1.31 1.23 0.82 0.57 0.50
0.45 0.60 0.52 0.36 0.31 0.36 0.26 0.22 0.29 0.33 0.43 0.90 1.32 1.52 1.45 1.46 1.55 1.54 1.51 1.45 1.41 1.37 1.37 1.41 1.25 1.27 1.40 1.61 1.73 1.58 1.44 1.36 1.35 1.34 1.37 1.40 1.37 1.27 1.27 1.48 1.60 1.34 0.80
0.44 0.48 0.57 0.57 0.25 0.27 0.19 0.10 0.11 0.15 0.15 0.28 0.41 0.67 0.89 0.96 0.84 0.88 0.78 0.78 0.95 1.05 1.12 1.22 1.32 1.26 1.29 1.35 1.36 1.31 1.22 1.16 1.01 0.95 0.99 1.04 0.96 0.95 0.97 1.09 1.30 1.53 1.37
0.72 0.77 0.96 0.90 0.38 0.24 0.19 0.15 0.11 0.08 0.11 0.16 0.13 0.20 0.32 0.52 0.68 0.65 0.61 0.43 0.51 0.70 1.21 1.17 0.88 0.89 0.94 1.13 1.41 1.40 1.22 1.19 1.18 1.09 1.08 1.08 1.05 1.00 0.93 0.94 1.01 1.24 1.45
0.91 0.81 0.78 0.87 0.54 0.26 0.25 0.20 0.19 0.19 0.16 0.13 0.07 0.07 0.18 0.27 0.25 0.24 0.32 0.34 0.36 0.46 0.72 1.00 1.16 1.04 0.89 0.87 0.93 0.94 1.03 1.22 1.24 1.26 1.25 1.13 1.19 1.48 1.55 1.51 1.56 1.72 1.94
0.96 0.98 0.86 0.81 0.70 0.42 0.32 0.23 0.14 0.15 0.10 0.08 0.04 0.04 0.06 0.06 0.08 0.07 0.07 0.06 0.05 0.06 0.09 0.14 0.22 0.30 0.47 0.60 0.62 0.64 0.68 0.74 0.82 0.89 1.02 0.97 0.96 0.99 0.97 1.03 1.13 1.24 1.36
0.47 0.44 0.36 0.33 0.38 0.34 0.31 0.31 0.31 0.18 0.08 0.06 0.06 0.05 0.04 0.04 0.06 0.07 0.07 0.07 0.07 0.08 0.07 0.05 0.05 0.06 0.06 0.07 0.11 0.20 0.33 0.47 0.60 0.69 0.70 0.66 0.77 0.82 0.93 1.07 1.21 1.27 1.40
0.01 0.01 0.03 0.01 0.01 0.09 0.17 0.21 0.14 0.06 0.10 0.11 0.08 0.06 0.08 0.07 0.07 0.06 0.06 0.06 0.07 0.07 0.06 0.08 0.08 0.07 0.06 0.08 0.13 0.17 0.20 0.23 0.28 0.36 0.48 0.58 0.72 0.84 0.97 1.05 1.04 1.10 1.22
0.02 0.02 0.00 0.00 0.01 0.05 0.23 0.17 0.14 0.20 0.19 0.16 0.13 0.10 0.08 0.09 0.07 0.05 0.07 0.07 0.06 0.06 0.04 0.08 0.15 0.17 0.17 0.16 0.13 0.13 0.14 0.18 0.23 0.27 0.31 0.33 0.46 0.57 0.62 0.77 0.86 1.00 1.17
0.00 0.00 0.00 0.00 0.00 0.03 0.08 0.15 0.24 0.15 0.18 0.11 0.11 0.08 0.08 0.08 0.09 0.08 0.05 0.08 0.08 0.08 0.12 0.11 0.11 0.14 0.18 0.36 0.28 0.18 0.16 0.18 0.23 0.28 0.36 0.45 0.59 0.53 0.51 0.46 0.42 0.42 0.59
0.00 0.00 0.00 0.00 0.00 0.01 0.11 0.51 0.64 0.29 0.28 0.15 0.17 0.17 0.13 0.20 0.20 0.15 0.13 0.11 0.15 0.24 0.23 0.22 0.26 0.25 0.24 0.35 0.29 0.34 0.36 0.42 0.47 0.48 0.45 0.37 0.35 0.35 0.29 0.29 0.31 0.34 0.34
0.01 0.00 0.00 0.00 0.00 0.03 0.28 0.83 0.87 0.28 0.25 0.22 0.33 0.57 0.48 0.52 0.60 0.75 0.63 0.64 0.52 0.46 0.54 0.56 0.58 0.64 0.76 0.80 0.68 0.55 0.44 0.46 0.48 0.45 0.40 0.33 0.26 0.19 0.14 0.16 0.21 0.11 0.08
0.01 0.01 0.00 0.00 0.02 0.05 0.18 0.35 0.75 0.92 0.72 0.63 0.81 0.80 0.70 0.74 0.84 1.06 1.14 0.80 0.97 0.78 0.78 0.68 0.55 0.60 0.71 0.67 0.50 0.45 0.39 0.29 0.19 0.14 0.07 0.03 0.03 0.05 0.09 0.09 0.05 0.02 0.02
0.01 0.01 0.01 0.02 0.04 0.03 0.08 0.20 0.35 0.94 1.21 0.79 0.81 0.88 0.75 0.73 0.89 0.99 0.98 0.72 0.61 0.66 0.58 0.63 0.60 0.51 0.43 0.32 0.20 0.12 0.08 0.06 0.02 0.00 0.00 0.02 0.02 0.06 0.10 0.06 0.02 0.03 0.01
0.07 0.09 0.09 0.17 0.22 0.17 0.32 0.49 0.49 0.81 1.10 0.86 0.88 0.70 0.73 0.45 0.61 0.69 0.62 0.47 0.37 0.42 0.43 0.40 0.33 0.23 0.15 0.08 0.05 0.04 0.04 0.02 0.02 0.01 0.01 0.00 0.05 0.09 0.09 0.09 0.06 0.08 0.10
0.15 0.16 0.24 0.55 0.66 0.68 0.58 0.54 0.44 0.32 0.33 0.44 0.46 0.31 0.26 0.23 0.18 0.19 0.27 0.24 0.14 0.10 0.05 0.02 0.01 0.01 0.02 0.04 0.05 0.07 0.08 0.08 0.04 0.03 0.02 0.03 0.10 0.11 0.10 0.10 0.07 0.12 0.12
0.02 0.05 0.15 0.16 0.09 0.14 0.12 0.15 0.06 0.02 0.02 0.02 0.01 0.02 0.02 0.02 0.01 0.00 0.00 0.00 0.00 0.00 0.01 0.01 0.01 0.02 0.02 0.03 0.07 0.08 0.09 0.10 0.09 0.05 0.08 0.10 0.14 0.13 0.09 0.08 0.07 0.11 0.07
0.00 0.00 0.00 0.00 0.00 0.00 0.00 0.00 0.01 0.02 0.02 0.01 0.00 0.00 0.01 0.01 0.01 0.00 0.00 0.00 0.00 0.00 0.01 0.01 0.02 0.02 0.02 0.02 0.03 0.07 0.11 0.14 0.12 0.09 0.15 0.23 0.20 0.17 0.15 0.15 0.12 0.10 0.10
0.08 0.08 0.07 0.04 0.01 0.00 0.01 0.00 0.00 0.00 0.00 0.01 0.01 0.00 0.00 0.00 0.00 0.00 0.00 0.00 0.00 0.02 0.03 0.02 0.04 0.06 0.07 0.04 0.17 0.22 0.21 0.24 0.29 0.32 0.20 0.22 0.24 0.21 0.15 0.12 0.17 0.19 0.17
0.03 0.07 0.16 0.22 0.25 0.21 0.17 0.13 0.11 0.11 0.09 0.06 0.04 0.04 0.04 0.04 0.05 0.04 0.04 0.08 0.08 0.08 0.08 0.08 0.07 0.06 0.10 0.16 0.25 0.26 0.29 0.33 0.43 0.40 0.25 0.25 0.17 0.15 0.20 0.25 0.27 0.23 0.26